This demonstration page uses our WeatherBlox Daily Observations layout. Learn more.

Left ArrowRight Arrow

Hourly Observations for March 18, 2016

Temp ( °F °C ) Dew Point ( °F °C ) Humidity (%) Winds ( mph kmh ) Pressure ( in mb ) Visibility ( mi km ) Precip ( " mm )
12:15 am 00:15 Clear 37 3 18 -8 45 45 NNE 15 24 30.15 1021 10 16 0.00 0.00
12:35 am 00:35 Clear 37 3 18 -8 45 45 NNE 15 24 30.15 1021 10 16 0.00 0.00
12:55 am 00:55 Clear 37 3 18 -8 45 45 NNE 13 20 30.18 1022 10 16 0.00 0.00
1:15 am 01:15 Clear 36 2 18 -8 48 48 NNE 15 24 30.21 1023 10 16 0.00 0.00
1:35 am 01:35 Clear 36 2 18 -8 48 48 NNE 15 24 30.21 1023 10 16 0.00 0.00
1:55 am 01:55 Clear 34 1 18 -8 51 51 NNE 15 24 30.24 1024 10 16 0.00 0.00
2:15 am 02:15 Clear 34 1 18 -8 51 51 N 13 20 30.24 1024 10 16 0.00 0.00
2:35 am 02:35 Clear 34 1 18 -8 51 51 NNE 13 20 30.24 1024 10 16 0.00 0.00
2:55 am 02:55 Clear 34 1 18 -8 51 51 N 10 17 30.24 1024 10 16 0.00 0.00
3:15 am 03:15 Clear 32 0 18 -8 55 55 N 9 15 30.24 1024 10 16 0.00 0.00
3:35 am 03:35 Clear 32 0 18 -8 55 55 N 10 17 30.24 1024 10 16 0.00 0.00
3:55 am 03:55 Clear 30 -1 18 -8 59 59 N 13 20 30.27 1025 10 16 0.00 0.00
4:15 am 04:15 Clear 30 -1 16 -9 55 55 N 13 20 30.24 1024 10 16 0.00 0.00
4:35 am 04:35 Clear 30 -1 16 -9 55 55 N 14 22 30.27 1025 10 16 0.00 0.00
4:55 am 04:55 Clear 30 -1 16 -9 55 55 N 12 19 30.27 1025 10 16 0.00 0.00
5:15 am 05:15 Clear 30 -1 16 -9 55 55 N 12 19 30.27 1025 10 16 0.00 0.00
5:35 am 05:35 Clear 30 -1 16 -9 55 55 N 8 13 30.30 1026 10 16 0.00 0.00
5:55 am 05:55 Clear 28 -2 16 -9 59 59 N 7 11 30.30 1026 10 16 0.00 0.00
6:15 am 06:15 Mostly Cloudy 28 -2 16 -9 59 59 N 9 15 30.30 1026 10 16 0.00 0.00
6:35 am 06:35 Cloudy 28 -2 16 -9 59 59 N 6 9 30.30 1026 10 16 0.00 0.00
6:55 am 06:55 Cloudy 28 -2 16 -9 59 59 NNW 6 9 30.33 1027 10 16 0.00 0.00
7:15 am 07:15 Cloudy 28 -2 16 -9 59 59 NNW 8 13 30.33 1027 10 16 0.00 0.00
7:35 am 07:35 Cloudy 27 -3 16 -9 64 64 NNW 12 19 30.33 1027 10 16 0.00 0.00
7:55 am 07:55 Cloudy 27 -3 16 -9 64 64 NNW 9 15 30.36 1028 10 16 0.00 0.00
8:15 am 08:15 Cloudy 27 -3 14 -10 59 59 NNW 9 15 30.36 1028 10 16 0.00 0.00
8:35 am 08:35 Cloudy 27 -3 14 -10 59 59 NNW 8 13 30.36 1028 10 16 0.00 0.00
8:55 am 08:55 Cloudy 27 -3 14 -10 59 59 NW 8 13 30.36 1028 10 16 0.00 0.00
9:15 am 09:15 Partly Cloudy 27 -3 14 -10 59 59 NNW 8 13 30.36 1028 10 16 0.00 0.00
9:35 am 09:35 Sunny 27 -3 16 -9 64 64 NW 8 13 30.36 1028 10 16 0.00 0.00
9:55 am 09:55 Mostly Sunny 28 -2 16 -9 59 59 NNW 9 15 30.36 1028 10 16 0.00 0.00
10:15 am 10:15 Mostly Sunny 30 -1 16 -9 55 55 NNW 8 13 30.36 1028 10 16 0.00 0.00
10:35 am 10:35 Sunny 32 0 16 -9 51 51 WNW 8 13 30.36 1028 10 16 0.00 0.00
10:55 am 10:55 Sunny 34 1 14 -10 44 44 WNW 9 15 30.33 1027 10 16 0.00 0.00
11:15 am 11:15 Sunny 36 2 16 -9 44 44 NNW 10 17 30.33 1027 10 16 0.00 0.00
11:35 am 11:35 Mostly Sunny 36 2 16 -9 44 44 NNW 9 15 30.33 1027 10 16 0.00 0.00
11:55 am 11:55 Mostly Sunny 37 3 16 -9 41 41 N 18 30 30.33 1027 10 16 0.00 0.00
12:15 pm 12:15 Sunny 39 4 14 -10 36 36 NNW 17 28 30.30 1026 10 16 0.00 0.00
12:35 pm 12:35 Mostly Sunny 39 4 12 -11 33 33 N 20 31 30.30 1026 10 16 0.00 0.00
12:55 pm 12:55 Mostly Sunny 39 4 12 -11 33 33 N 17 28 30.30 1026 10 16 0.00 0.00
1:35 pm 13:35 Sunny 43 6 12 -11 29 29 NNW 18 30 30.27 1025 10 16 0.00 0.00
1:55 pm 13:55 Mostly Sunny 43 6 14 -10 31 31 N 16 26 30.27 1025 10 16 0.00 0.00
2:15 pm 14:15 Mostly Sunny 43 6 12 -11 29 29 NNW 18 30 30.27 1025 10 16 0.00 0.00
2:35 pm 14:35 Sunny 43 6 12 -11 29 29 NW 21 33 30.24 1024 10 16 0.00 0.00
2:55 pm 14:55 Mostly Sunny 43 6 14 -10 31 31 NW 18 30 30.24 1024 10 16 0.00 0.00
3:15 pm 15:15 Mostly Cloudy 45 7 12 -11 27 27 NW 13 20 30.21 1023 10 16 0.00 0.00
3:35 pm 15:35 Mostly Cloudy 43 6 12 -11 29 29 NNW 17 28 30.24 1024 10 16 0.00 0.00
3:55 pm 15:55 Mostly Cloudy 43 6 12 -11 29 29 WNW 12 19 30.24 1024 10 16 0.00 0.00
4:15 pm 16:15 Mostly Sunny 43 6 12 -11 29 29 WNW 14 22 30.24 1024 10 16 0.00 0.00
4:35 pm 16:35 Mostly Cloudy 43 6 12 -11 29 29 NW 15 24 30.24 1024 10 16 0.00 0.00
4:55 pm 16:55 Cloudy 45 7 14 -10 29 29 NNW 18 30 30.21 1023 10 16 0.00 0.00
5:15 pm 17:15 Cloudy 45 7 10 -12 25 25 WNW 20 31 30.21 1023 10 16 0.00 0.00
5:35 pm 17:35 Mostly Cloudy 45 7 10 -12 25 25 WNW 17 28 30.21 1023 10 16 0.00 0.00
5:55 pm 17:55 Partly Cloudy 45 7 9 -13 23 23 NW 21 33 30.21 1023 10 16 0.00 0.00
6:15 pm 18:15 Partly Cloudy 43 6 9 -13 24 24 NNW 22 35 30.24 1024 10 16 0.00 0.00
6:35 pm 18:35 Mostly Cloudy 43 6 9 -13 24 24 N 21 33 30.24 1024 10 16 0.00 0.00
6:55 pm 18:55 Mostly Sunny 41 5 9 -13 26 26 N 20 31 30.24 1024 10 16 0.00 0.00
7:15 pm 19:15 Sunny 39 4 10 -12 30 30 N 14 22 30.27 1025 10 16 0.00 0.00
7:35 pm 19:35 Sunny 39 4 9 -13 28 28 N 13 20 30.27 1025 10 16 0.00 0.00
7:55 pm 19:55 Clear 37 3 9 -13 30 30 N 12 19 30.30 1026 10 16 0.00 0.00
8:15 pm 20:15 Clear 36 2 9 -13 32 32 N 9 15 30.30 1026 10 16 0.00 0.00
8:35 pm 20:35 Clear 36 2 9 -13 32 32 NNW 8 13 30.30 1026 10 16 0.00 0.00
8:55 pm 20:55 Clear 34 1 9 -13 35 35 NNW 6 9 30.30 1026 10 16 0.00 0.00
9:15 pm 21:15 Clear 32 0 9 -13 37 37 NNW 6 9 30.30 1026 10 16 0.00 0.00
9:35 pm 21:35 Clear 30 -1 9 -13 40 40 NNW 7 11 30.36 1028 10 16 0.00 0.00
9:55 pm 21:55 Mostly Cloudy 30 -1 9 -13 40 40 NNW 6 9 30.36 1028 10 16 0.00 0.00
10:15 pm 22:15 Cloudy 28 -2 10 -12 47 47 NW 6 9 30.36 1028 10 16 0.00 0.00
10:35 pm 22:35 Cloudy 28 -2 10 -12 47 47 NW 5 7 30.36 1028 10 16 0.00 0.00
10:55 pm 22:55 Cloudy 30 -1 10 -12 43 43 NNW 5 7 30.36 1028 10 16 0.00 0.00
11:15 pm 23:15 Mostly Cloudy 30 -1 10 -12 43 43 NW 5 7 30.36 1028 10 16 0.00 0.00
11:35 pm 23:35 Cloudy 28 -2 10 -12 47 47 WNW 5 7 30.36 1028 10 16 0.00 0.00
11:55 pm 23:55 Cloudy 28 -2 10 -12 47 47 WNW 6 9 30.36 1028 10 16 0.00 0.00

Powered by AerisWeather